Time,TemperatureF,DewpointF,PressureIn,WindDirection,WindDirectionDegrees,WindSpeedMPH,WindSpeedGustMPH,Humidity,HourlyPrecipIn,Conditions,Clouds,dailyrainin,SoftwareType,DateUTC
2013-04-29 00:00:00,46.5,46.5,30.08,ESE,123,3.0,5.0,100,0.01,,---,1.78,VWS V14.01,2013-04-29 04:00:00,
2013-04-29 00:01:00,46.5,46.5,30.08,ESE,118,6.0,6.0,100,0.01,,---,0.00,VWS V14.01,2013-04-29 04:01:00,
2013-04-29 00:06:00,46.5,46.5,30.08,ESE,119,0.0,0.0,100,0.02,,---,0.01,VWS V14.01,2013-04-29 04:06:00,
2013-04-29 00:11:00,46.5,46.5,30.08,ESE,119,1.0,1.0,100,0.02,,---,0.01,VWS V14.01,2013-04-29 04:11:00,
2013-04-29 00:16:00,46.6,46.6,30.09,ESE,118,1.0,1.0,100,0.02,,---,0.01,VWS V14.01,2013-04-29 04:16:00,
2013-04-29 00:21:00,46.6,46.6,30.09,ESE,118,1.0,2.0,100,0.02,,---,0.01,VWS V14.01,2013-04-29 04:21:00,
2013-04-29 00:26:00,46.6,46.6,30.09,ESE,118,1.0,2.0,100,0.01,,---,0.01,VWS V14.01,2013-04-29 04:26:00,
2013-04-29 00:31:00,46.5,46.5,30.09,ESE,118,3.0,5.0,100,0.01,,---,0.01,VWS V14.01,2013-04-29 04:31:00,
2013-04-29 00:36:00,46.5,46.5,30.09,ESE,118,1.0,2.0,100,0.01,,---,0.01,VWS V14.01,2013-04-29 04:36:00,
2013-04-29 00:41:00,46.5,46.5,30.09,ESE,118,2.0,2.0,100,0.01,,---,0.01,VWS V14.01,2013-04-29 04:41:00,
2013-04-29 00:46:00,46.5,46.5,30.09,ESE,118,2.0,2.0,100,0.01,,---,0.01,VWS V14.01,2013-04-29 04:46:00,
2013-04-29 00:51:00,46.6,46.6,30.10,ESE,118,5.0,5.0,100,0.01,,---,0.01,VWS V14.01,2013-04-29 04:51:00,
2013-04-29 00:56:00,46.6,46.6,30.09,ESE,122,2.0,2.0,100,0.01,,---,0.01,VWS V14.01,2013-04-29 04:56:00,
2013-04-29 01:01:00,46.6,46.6,30.10,ESE,118,3.0,3.0,100,0.01,,---,0.01,VWS V14.01,2013-04-29 05:01:00,
2013-04-29 01:06:00,46.5,46.5,30.09,ESE,118,3.0,3.0,100,0.00,,---,0.01,VWS V14.01,2013-04-29 05:06:00,
2013-04-29 01:11:00,46.5,46.5,30.10,SE,129,3.0,5.0,100,0.00,,---,0.01,VWS V14.01,2013-04-29 05:11:00,
2013-04-29 01:16:00,46.4,46.4,30.10,SE,130,3.0,5.0,100,0.00,,---,0.01,VWS V14.01,2013-04-29 05:16:00,
2013-04-29 01:21:00,46.4,46.4,30.10,SE,124,3.0,6.0,100,0.00,,---,0.01,VWS V14.01,2013-04-29 05:21:00,
2013-04-29 01:26:00,46.4,46.4,30.10,SE,143,4.0,4.0,100,0.00,,---,0.01,VWS V14.01,2013-04-29 05:26:00,
2013-04-29 01:31:00,46.4,46.4,30.09,East,94,4.0,7.0,100,0.00,,---,0.01,VWS V14.01,2013-04-29 05:31:00,
2013-04-29 01:36:00,46.4,46.4,30.09,ESE,114,6.0,7.0,100,0.00,,---,0.01,VWS V14.01,2013-04-29 05:36:00,
2013-04-29 01:41:00,46.4,46.4,30.09,SE,132,3.0,4.0,100,0.00,,---,0.01,VWS V14.01,2013-04-29 05:41:00,
2013-04-29 01:46:00,46.4,46.4,30.09,SE,137,4.0,6.0,100,0.00,,---,0.01,VWS V14.01,2013-04-29 05:46:00,
2013-04-29 01:51:00,46.4,46.4,30.09,ESE,114,6.0,6.0,100,0.00,,---,0.01,VWS V14.01,2013-04-29 05:51:00,
2013-04-29 01:56:00,46.4,46.4,30.09,ESE,114,5.0,6.0,100,0.00,,---,0.01,VWS V14.01,2013-04-29 05:56:00,
2013-04-29 02:01:00,46.4,46.4,30.09,SE,124,3.0,5.0,100,0.00,,---,0.01,VWS V14.01,2013-04-29 06:01:00,
2013-04-29 02:06:00,46.4,46.4,30.09,SE,126,3.0,3.0,100,0.01,,---,0.02,VWS V14.01,2013-04-29 06:06:00,
2013-04-29 02:11:00,46.4,46.4,30.09,SE,126,5.0,5.0,100,0.01,,---,0.02,VWS V14.01,2013-04-29 06:11:00,
2013-04-29 02:16:00,46.4,46.4,30.08,ESE,104,4.0,4.0,100,0.01,,---,0.02,VWS V14.01,2013-04-29 06:16:00,
2013-04-29 02:21:00,46.4,46.4,30.07,ESE,116,3.0,5.0,100,0.02,,---,0.03,VWS V14.01,2013-04-29 06:21:00,
2013-04-29 02:26:00,46.4,46.4,30.07,ESE,120,0.0,1.0,100,0.02,,---,0.03,VWS V14.01,2013-04-29 06:26:00,
2013-04-29 02:31:00,46.5,46.5,30.07,ESE,120,0.0,0.0,100,0.02,,---,0.03,VWS V14.01,2013-04-29 06:31:00,
2013-04-29 02:36:00,46.5,46.5,30.07,ESE,120,3.0,3.0,100,0.02,,---,0.03,VWS V14.01,2013-04-29 06:36:00,
2013-04-29 02:41:00,46.5,46.5,30.07,ESE,120,3.0,5.0,100,0.03,,---,0.04,VWS V14.01,2013-04-29 06:41:00,
2013-04-29 02:46:00,46.5,46.5,30.07,ESE,120,3.0,3.0,100,0.03,,---,0.04,VWS V14.01,2013-04-29 06:46:00,
2013-04-29 02:51:00,46.4,46.4,30.07,SE,126,5.0,6.0,100,0.03,,---,0.04,VWS V14.01,2013-04-29 06:51:00,
2013-04-29 02:56:00,46.4,46.4,30.08,SSE,149,3.0,4.0,100,0.03,,---,0.04,VWS V14.01,2013-04-29 06:56:00,
2013-04-29 03:01:00,46.3,46.3,30.08,SSE,153,1.0,2.0,100,0.03,,---,0.04,VWS V14.01,2013-04-29 07:01:00,
2013-04-29 03:06:00,46.3,46.3,30.08,ESE,121,5.0,6.0,100,0.02,,---,0.04,VWS V14.01,2013-04-29 07:06:00,
2013-04-29 03:11:00,46.3,46.3,30.07,SE,142,3.0,4.0,100,0.02,,---,0.04,VWS V14.01,2013-04-29 07:11:00,
2013-04-29 03:16:00,46.3,46.3,30.08,SSE,155,5.0,5.0,100,0.02,,---,0.04,VWS V14.01,2013-04-29 07:16:00,
2013-04-29 03:21:00,46.3,46.3,30.07,SE,141,4.0,5.0,100,0.01,,---,0.04,VWS V14.01,2013-04-29 07:21:00,
2013-04-29 03:26:00,46.4,46.4,30.07,SE,129,3.0,5.0,100,0.01,,---,0.04,VWS V14.01,2013-04-29 07:26:00,
2013-04-29 03:31:00,46.5,46.5,30.07,SSE,156,4.0,6.0,100,0.01,,---,0.04,VWS V14.01,2013-04-29 07:31:00,
2013-04-29 03:36:00,46.5,46.5,30.07,SE,128,3.0,5.0,100,0.01,,---,0.04,VWS V14.01,2013-04-29 07:36:00,
2013-04-29 03:41:00,46.5,46.5,30.07,SE,140,4.0,4.0,100,0.00,,---,0.04,VWS V14.01,2013-04-29 07:41:00,
2013-04-29 03:46:00,46.5,46.5,30.07,SSE,151,3.0,4.0,100,0.00,,---,0.04,VWS V14.01,2013-04-29 07:46:00,
2013-04-29 03:51:00,46.5,46.5,30.06,SE,130,3.0,5.0,100,0.00,,---,0.04,VWS V14.01,2013-04-29 07:51:00,
2013-04-29 03:56:00,46.5,46.5,30.06,SE,128,3.0,5.0,100,0.00,,---,0.04,VWS V14.01,2013-04-29 07:56:00,
2013-04-29 04:01:00,46.5,46.5,30.06,SE,131,5.0,6.0,100,0.00,,---,0.04,VWS V14.01,2013-04-29 08:01:00,
2013-04-29 04:06:00,46.5,46.5,30.06,SE,141,3.0,4.0,100,0.00,,---,0.04,VWS V14.01,2013-04-29 08:06:00,
2013-04-29 04:11:00,46.5,46.5,30.05,SSE,149,3.0,5.0,100,0.00,,---,0.04,VWS V14.01,2013-04-29 08:11:00,
2013-04-29 04:16:00,46.5,46.5,30.05,SE,137,3.0,5.0,100,0.00,,---,0.04,VWS V14.01,2013-04-29 08:16:00,
2013-04-29 04:21:00,46.6,46.6,30.05,ENE,74,1.0,5.0,100,0.00,,---,0.04,VWS V14.01,2013-04-29 08:21:00,
2013-04-29 04:26:00,46.6,46.6,30.05,East,85,2.0,3.0,100,0.01,,---,0.05,VWS V14.01,2013-04-29 08:26:00,
2013-04-29 04:31:00,46.7,46.7,30.04,East,94,3.0,4.0,100,0.01,,---,0.05,VWS V14.01,2013-04-29 08:31:00,
2013-04-29 04:36:00,46.7,46.7,30.04,ESE,112,5.0,5.0,100,0.01,,---,0.05,VWS V14.01,2013-04-29 08:36:00,
2013-04-29 04:41:00,46.6,46.6,30.04,ESE,104,2.0,5.0,100,0.01,,---,0.05,VWS V14.01,2013-04-29 08:41:00,
2013-04-29 04:46:00,46.6,46.6,30.04,SSE,153,2.0,3.0,100,0.01,,---,0.05,VWS V14.01,2013-04-29 08:46:00,
2013-04-29 04:51:00,46.6,46.6,30.03,ESE,107,3.0,4.0,100,0.01,,---,0.05,VWS V14.01,2013-04-29 08:51:00,
2013-04-29 04:56:00,46.6,46.6,30.03,ESE,106,3.0,3.0,100,0.01,,---,0.05,VWS V14.01,2013-04-29 08:56:00,
2013-04-29 05:01:00,46.7,46.7,30.03,ESE,112,3.0,5.0,100,0.01,,---,0.05,VWS V14.01,2013-04-29 09:01:00,
2013-04-29 05:06:00,46.7,46.7,30.03,ESE,112,5.0,5.0,100,0.01,,---,0.05,VWS V14.01,2013-04-29 09:06:00,
2013-04-29 05:11:00,46.7,46.7,30.04,ESE,118,2.0,2.0,100,0.01,,---,0.05,VWS V14.01,2013-04-29 09:11:00,
2013-04-29 05:16:00,46.7,46.7,30.04,ESE,118,2.0,3.0,100,0.01,,---,0.05,VWS V14.01,2013-04-29 09:16:00,
2013-04-29 05:21:00,46.7,46.7,30.04,SE,133,1.0,2.0,100,0.01,,---,0.05,VWS V14.01,2013-04-29 09:21:00,
2013-04-29 05:26:00,46.7,46.7,30.05,SE,137,2.0,2.0,100,0.00,,---,0.05,VWS V14.01,2013-04-29 09:26:00,
2013-04-29 05:31:00,46.7,46.7,30.04,SE,138,3.0,3.0,100,0.00,,---,0.05,VWS V14.01,2013-04-29 09:31:00,
2013-04-29 05:36:00,46.7,46.7,30.04,SE,138,2.0,2.0,100,0.00,,---,0.05,VWS V14.01,2013-04-29 09:36:00,
2013-04-29 05:41:00,46.7,46.7,30.04,SE,145,1.0,1.0,100,0.00,,---,0.05,VWS V14.01,2013-04-29 09:41:00,
2013-04-29 05:46:00,46.7,46.7,30.05,SE,145,1.0,1.0,100,0.00,,---,0.05,VWS V14.01,2013-04-29 09:46:00,
2013-04-29 05:51:00,46.9,46.9,30.05,South,181,2.0,3.0,100,0.00,,---,0.05,VWS V14.01,2013-04-29 09:51:00,
2013-04-29 05:56:00,46.9,46.9,30.05,South,183,1.0,1.0,100,0.00,,---,0.05,VWS V14.01,2013-04-29 09:56:00,
2013-04-29 06:01:00,46.9,46.9,30.05,South,188,0.0,0.0,100,0.00,,---,0.05,VWS V14.01,2013-04-29 10:01:00,
2013-04-29 06:05:00,47.0,47.0,30.05,South,188,0.0,0.0,100,0.00,,---,0.05,VWS V14.01,2013-04-29 10:05:00,
2013-04-29 06:10:00,47.1,47.1,30.06,South,189,0.0,0.0,100,0.00,,---,0.05,VWS V14.01,2013-04-29 10:10:00,
2013-04-29 06:15:00,47.2,47.2,30.06,South,189,0.0,0.0,100,0.00,,---,0.05,VWS V14.01,2013-04-29 10:15:00,
2013-04-29 06:20:00,47.3,47.3,30.05,SSW,193,2.0,2.0,100,0.00,,---,0.05,VWS V14.01,2013-04-29 10:20:00,
2013-04-29 06:26:00,47.3,47.3,30.06,SSW,193,1.0,1.0,100,0.00,,---,0.05,VWS V14.01,2013-04-29 10:26:00,
2013-04-29 06:31:00,47.4,47.4,30.06,SSW,193,0.0,2.0,100,0.00,,---,0.05,VWS V14.01,2013-04-29 10:31:00,
2013-04-29 06:36:00,47.4,47.4,30.06,SSW,195,0.0,0.0,100,0.00,,---,0.05,VWS V14.01,2013-04-29 10:36:00,
2013-04-29 06:41:00,47.5,47.5,30.06,SSW,197,1.0,2.0,100,0.00,,---,0.05,VWS V14.01,2013-04-29 10:41:00,
2013-04-29 06:46:00,47.4,47.4,30.06,WSW,256,1.0,1.0,100,0.00,,---,0.05,VWS V14.01,2013-04-29 10:46:00,
2013-04-29 06:51:00,47.5,47.5,30.06,WSW,256,0.0,0.0,100,0.00,,---,0.05,VWS V14.01,2013-04-29 10:51:00,
2013-04-29 06:56:00,47.6,47.6,30.06,WSW,256,0.0,0.0,100,0.00,,---,0.05,VWS V14.01,2013-04-29 10:56:00,
2013-04-29 07:01:00,47.6,47.6,30.06,West,260,1.0,2.0,100,0.00,,---,0.05,VWS V14.01,2013-04-29 11:01:00,
2013-04-29 07:06:00,47.5,47.5,30.06,West,260,0.0,1.0,100,0.00,,---,0.05,VWS V14.01,2013-04-29 11:06:00,
2013-04-29 07:11:00,47.3,47.3,30.06,West,260,0.0,1.0,100,0.00,,---,0.05,VWS V14.01,2013-04-29 11:11:00,
2013-04-29 07:16:00,47.2,47.2,30.06,West,262,2.0,2.0,100,0.00,,---,0.05,VWS V14.01,2013-04-29 11:16:00,
2013-04-29 07:21:00,47.4,47.4,30.06,West,269,2.0,3.0,100,0.00,,---,0.05,VWS V14.01,2013-04-29 11:21:00,
2013-04-29 07:26:00,47.6,47.6,30.06,West,269,2.0,2.0,100,0.00,,---,0.05,VWS V14.01,2013-04-29 11:26:00,
2013-04-29 07:31:00,47.7,47.7,30.06,West,270,1.0,3.0,100,0.00,,---,0.05,VWS V14.01,2013-04-29 11:31:00,
2013-04-29 07:36:00,47.9,47.9,30.06,West,269,0.0,0.0,100,0.00,,---,0.05,VWS V14.01,2013-04-29 11:36:00,
2013-04-29 07:41:00,48.2,48.2,30.06,West,269,0.0,1.0,100,0.00,,---,0.05,VWS V14.01,2013-04-29 11:41:00,
2013-04-29 07:46:00,48.5,48.5,30.07,West,269,0.0,1.0,100,0.00,,---,0.05,VWS V14.01,2013-04-29 11:46:00,
2013-04-29 07:51:00,48.6,48.6,30.06,West,269,0.0,0.0,100,0.00,,---,0.05,VWS V14.01,2013-04-29 11:51:00,
2013-04-29 07:55:00,48.7,48.7,30.06,West,269,0.0,0.0,100,0.00,,---,0.05,VWS V14.01,2013-04-29 11:55:00,
2013-04-29 08:01:00,48.9,48.9,30.06,West,269,0.0,1.0,100,0.00,,---,0.05,VWS V14.01,2013-04-29 12:01:00,
2013-04-29 08:06:00,49.0,49.0,30.06,West,269,0.0,1.0,100,0.00,,---,0.05,VWS V14.01,2013-04-29 12:06:00,
2013-04-29 08:10:00,48.8,48.8,30.06,West,269,1.0,1.0,100,0.00,,---,0.05,VWS V14.01,2013-04-29 12:10:00,
2013-04-29 08:15:00,48.8,48.8,30.07,West,269,0.0,1.0,100,0.00,,---,0.05,VWS V14.01,2013-04-29 12:15:00,
2013-04-29 08:20:00,49.2,49.2,30.07,West,269,0.0,1.0,100,0.00,,---,0.05,VWS V14.01,2013-04-29 12:20:00,
2013-04-29 08:25:00,49.6,49.6,30.07,WSW,250,0.0,2.0,100,0.00,,---,0.05,VWS V14.01,2013-04-29 12:25:00,
2013-04-29 08:30:00,49.3,49.3,30.07,WSW,250,0.0,1.0,100,0.00,,---,0.05,VWS V14.01,2013-04-29 12:30:00,
2013-04-29 08:35:00,49.4,49.4,30.07,WSW,250,0.0,0.0,100,0.00,,---,0.05,VWS V14.01,2013-04-29 12:35:00,
2013-04-29 08:40:00,49.9,49.9,30.07,WSW,251,0.0,1.0,100,0.00,,---,0.05,VWS V14.01,2013-04-29 12:40:00,
2013-04-29 08:45:00,50.3,50.3,30.07,WSW,251,0.0,0.0,100,0.00,,---,0.05,VWS V14.01,2013-04-29 12:45:00,
2013-04-29 08:50:00,50.3,50.3,30.07,WSW,251,0.0,0.0,100,0.00,,---,0.05,VWS V14.01,2013-04-29 12:50:00,
2013-04-29 08:55:00,50.2,50.2,30.07,WSW,251,0.0,0.0,100,0.00,,---,0.05,VWS V14.01,2013-04-29 12:55:00,
2013-04-29 09:00:00,49.7,49.7,30.07,WSW,251,0.0,0.0,100,0.00,,---,0.05,VWS V14.01,2013-04-29 13:00:00,
2013-04-29 09:05:00,50.4,50.4,30.07,WSW,251,0.0,0.0,100,0.00,,---,0.05,VWS V14.01,2013-04-29 13:05:00,
2013-04-29 09:10:00,52.1,52.1,30.07,WSW,251,0.0,0.0,100,0.00,,---,0.05,VWS V14.01,2013-04-29 13:10:00,
2013-04-29 09:15:00,51.1,51.1,30.07,WSW,251,2.0,3.0,100,0.00,,---,0.05,VWS V14.01,2013-04-29 13:15:00,
2013-04-29 09:20:00,51.0,51.0,30.07,WSW,251,0.0,0.0,100,0.00,,---,0.05,VWS V14.01,2013-04-29 13:20:00,
2013-04-29 09:25:00,50.7,50.7,30.07,WSW,251,0.0,0.0,100,0.00,,---,0.05,VWS V14.01,2013-04-29 13:25:00,
2013-04-29 09:30:00,51.9,51.9,30.07,WSW,251,0.0,0.0,100,0.00,,---,0.05,VWS V14.01,2013-04-29 13:30:00,
2013-04-29 09:35:00,52.0,52.0,30.07,WSW,251,0.0,0.0,100,0.00,,---,0.05,VWS V14.01,2013-04-29 13:35:00,
2013-04-29 09:40:00,51.6,51.6,30.07,WSW,251,0.0,1.0,100,0.00,,---,0.05,VWS V14.01,2013-04-29 13:40:00,
2013-04-29 09:45:00,52.5,52.5,30.07,WSW,251,0.0,1.0,100,0.00,,---,0.05,VWS V14.01,2013-04-29 13:45:00,
2013-04-29 09:50:00,52.6,52.6,30.07,WSW,251,0.0,0.0,100,0.00,,---,0.05,VWS V14.01,2013-04-29 13:50:00,
2013-04-29 09:55:00,53.4,53.4,30.07,WSW,251,0.0,1.0,100,0.00,,---,0.05,VWS V14.01,2013-04-29 13:55:00,
2013-04-29 10:00:00,54.2,54.2,30.07,WSW,258,2.0,3.0,100,0.00,,---,0.05,VWS V14.01,2013-04-29 14:00:00,
2013-04-29 10:05:00,54.4,54.4,30.06,WSW,258,0.0,1.0,100,0.00,,---,0.05,VWS V14.01,2013-04-29 14:05:00,
2013-04-29 10:10:00,53.3,53.3,30.07,WSW,245,0.0,0.0,100,0.00,,---,0.05,VWS V14.01,2013-04-29 14:10:00,
2013-04-29 10:15:00,54.6,54.6,30.07,WSW,245,1.0,1.0,100,0.00,,---,0.05,VWS V14.01,2013-04-29 14:15:00,
2013-04-29 10:20:00,54.6,54.6,30.07,WSW,245,1.0,1.0,100,0.00,,---,0.05,VWS V14.01,2013-04-29 14:20:00,
2013-04-29 10:25:00,54.1,54.1,30.07,WSW,245,0.0,0.0,100,0.00,,---,0.05,VWS V14.01,2013-04-29 14:25:00,
2013-04-29 10:30:00,54.1,54.1,30.07,WSW,245,0.0,1.0,100,0.00,,---,0.05,VWS V14.01,2013-04-29 14:30:00,
2013-04-29 10:35:00,54.1,53.8,30.07,WSW,245,1.0,1.0,99,0.00,,---,0.05,VWS V14.01,2013-04-29 14:35:00,
2013-04-29 10:40:00,54.7,53.6,30.07,West,261,1.0,1.0,96,0.00,,---,0.05,VWS V14.01,2013-04-29 14:40:00,
2013-04-29 10:45:00,57.0,56.2,30.07,West,261,2.0,2.0,97,0.00,,---,0.05,VWS V14.01,2013-04-29 14:45:00,
2013-04-29 10:50:00,58.4,56.1,30.07,WNW,291,3.0,3.0,92,0.00,,---,0.05,VWS V14.01,2013-04-29 14:50:00,
2013-04-29 10:55:00,58.4,54.5,30.07,WSW,245,3.0,6.0,87,0.00,,---,0.05,VWS V14.01,2013-04-29 14:55:00,
2013-04-29 11:00:00,59.6,55.4,30.07,WSW,245,0.0,1.0,86,0.00,,---,0.05,VWS V14.01,2013-04-29 15:00:00,
2013-04-29 11:05:00,60.9,56.0,30.07,NW,310,1.0,2.0,84,0.00,,---,0.05,VWS V14.01,2013-04-29 15:05:00,
2013-04-29 11:10:00,59.2,52.3,30.07,WSW,243,3.0,4.0,78,0.00,,---,0.05,VWS V14.01,2013-04-29 15:10:00,
2013-04-29 11:15:00,59.2,56.0,30.07,WSW,247,0.0,1.0,89,0.00,,---,0.05,VWS V14.01,2013-04-29 15:15:00,
2013-04-29 11:20:00,60.5,54.7,30.06,West,268,1.0,1.0,81,0.00,,---,0.05,VWS V14.01,2013-04-29 15:20:00,
2013-04-29 11:25:00,61.0,55.1,30.06,West,266,0.0,2.0,81,0.00,,---,0.05,VWS V14.01,2013-04-29 15:25:00,
2013-04-29 11:30:00,60.2,53.7,30.06,West,271,1.0,1.0,79,0.00,,---,0.05,VWS V14.01,2013-04-29 15:30:00,
2013-04-29 11:35:00,60.9,56.0,30.06,WSW,257,0.0,1.0,84,0.00,,---,0.05,VWS V14.01,2013-04-29 15:35:00,
2013-04-29 11:40:00,61.8,52.3,30.06,West,259,0.0,1.0,71,0.00,,---,0.05,VWS V14.01,2013-04-29 15:40:00,
2013-04-29 11:45:00,62.1,53.0,30.06,SW,229,1.0,2.0,72,0.00,,---,0.05,VWS V14.01,2013-04-29 15:45:00,
2013-04-29 11:50:00,59.7,50.7,30.06,WSW,238,1.0,1.0,72,0.00,,---,0.05,VWS V14.01,2013-04-29 15:50:00,
2013-04-29 11:55:00,61.4,53.4,30.06,WSW,249,1.0,2.0,75,0.00,,---,0.05,VWS V14.01,2013-04-29 15:55:00,
2013-04-29 12:00:00,62.8,54.4,30.06,WSW,244,3.0,3.0,74,0.00,,---,0.05,VWS V14.01,2013-04-29 16:00:00,
2013-04-29 12:05:00,62.3,52.8,30.06,WSW,255,3.0,5.0,71,0.00,,---,0.05,VWS V14.01,2013-04-29 16:05:00,
2013-04-29 12:10:00,62.7,53.9,30.06,WSW,254,2.0,4.0,73,0.00,,---,0.05,VWS V14.01,2013-04-29 16:10:00,
2013-04-29 12:15:00,62.6,49.0,30.06,West,263,2.0,2.0,61,0.00,,---,0.05,VWS V14.01,2013-04-29 16:15:00,
2013-04-29 12:20:00,62.6,54.2,30.05,WNW,282,1.0,2.0,74,0.00,,---,0.05,VWS V14.01,2013-04-29 16:20:00,
2013-04-29 12:25:00,63.2,52.9,30.05,WSW,257,2.0,2.0,69,0.00,,---,0.05,VWS V14.01,2013-04-29 16:25:00,
2013-04-29 12:30:00,63.9,54.3,30.05,NW,316,2.0,2.0,71,0.00,,---,0.05,VWS V14.01,2013-04-29 16:30:00,
2013-04-29 12:35:00,63.0,51.9,30.05,WSW,257,0.0,2.0,67,0.00,,---,0.05,VWS V14.01,2013-04-29 16:35:00,
2013-04-29 12:40:00,62.3,52.4,30.05,West,274,0.0,1.0,70,0.00,,---,0.05,VWS V14.01,2013-04-29 16:40:00,
2013-04-29 12:45:00,64.0,52.4,30.05,WSW,238,4.0,5.0,66,0.00,,---,0.05,VWS V14.01,2013-04-29 16:45:00,
2013-04-29 12:50:00,65.5,54.3,30.05,West,280,3.0,3.0,67,0.00,,---,0.05,VWS V14.01,2013-04-29 16:50:00,
2013-04-29 12:55:00,64.2,50.0,30.05,WNW,282,3.0,3.0,60,0.00,,---,0.05,VWS V14.01,2013-04-29 16:55:00,
2013-04-29 13:00:00,64.7,53.9,30.04,WSW,246,1.0,1.0,68,0.00,,---,0.05,VWS V14.01,2013-04-29 17:00:00,
2013-04-29 13:05:00,64.2,48.7,30.04,WNW,284,2.0,4.0,57,0.00,,---,0.05,VWS V14.01,2013-04-29 17:05:00,
2013-04-29 13:10:00,64.3,50.6,30.04,NW,310,1.0,2.0,61,0.00,,---,0.05,VWS V14.01,2013-04-29 17:10:00,
2013-04-29 13:15:00,65.9,48.8,30.04,West,266,2.0,2.0,54,0.00,,---,0.05,VWS V14.01,2013-04-29 17:15:00,
2013-04-29 13:20:00,64.5,50.3,30.04,NW,307,1.0,1.0,60,0.00,,---,0.05,VWS V14.01,2013-04-29 17:20:00,
2013-04-29 13:25:00,64.1,46.6,30.04,West,274,0.0,1.0,53,0.00,,---,0.05,VWS V14.01,2013-04-29 17:25:00,
2013-04-29 13:30:00,64.2,49.6,30.04,WSW,251,1.0,2.0,59,0.00,,---,0.05,VWS V14.01,2013-04-29 17:30:00,
2013-04-29 13:35:00,64.3,48.8,30.03,WSW,247,0.0,0.0,57,0.00,,---,0.05,VWS V14.01,2013-04-29 17:35:00,
2013-04-29 13:40:00,62.3,51.6,30.03,SW,232,2.0,2.0,68,0.00,,---,0.05,VWS V14.01,2013-04-29 17:40:00,
2013-04-29 13:45:00,61.4,51.9,30.04,SW,234,2.0,4.0,71,0.00,,---,0.05,VWS V14.01,2013-04-29 17:45:00,
2013-04-29 13:50:00,59.6,52.0,30.03,SSE,151,1.0,2.0,76,0.00,,---,0.05,VWS V14.01,2013-04-29 17:50:00,
2013-04-29 13:55:00,59.0,51.5,30.03,SSE,167,6.0,6.0,76,0.00,,---,0.05,VWS V14.01,2013-04-29 17:55:00,
2013-04-29 14:00:00,58.9,52.1,30.04,SSW,192,1.0,5.0,78,0.00,,---,0.05,VWS V14.01,2013-04-29 18:00:00,
2013-04-29 14:05:00,59.9,52.7,30.03,SSE,165,5.0,5.0,77,0.00,,---,0.05,VWS V14.01,2013-04-29 18:05:00,
2013-04-29 14:10:00,60.0,54.5,30.03,ESE,105,3.0,3.0,82,0.00,,---,0.05,VWS V14.01,2013-04-29 18:10:00,
2013-04-29 14:15:00,59.4,53.6,30.03,SE,132,4.0,5.0,81,0.00,,---,0.05,VWS V14.01,2013-04-29 18:15:00,
2013-04-29 14:20:00,59.8,53.6,30.03,ESE,102,1.0,3.0,80,0.00,,---,0.05,VWS V14.01,2013-04-29 18:20:00,
2013-04-29 14:25:00,59.2,52.7,30.03,SSW,211,4.0,5.0,79,0.00,,---,0.05,VWS V14.01,2013-04-29 18:25:00,
2013-04-29 14:30:00,58.6,53.1,30.03,South,180,7.0,8.0,82,0.00,,---,0.05,VWS V14.01,2013-04-29 18:30:00,
2013-04-29 14:35:00,58.8,53.0,30.02,SE,124,8.0,8.0,81,0.00,,---,0.05,VWS V14.01,2013-04-29 18:35:00,
2013-04-29 14:40:00,61.2,55.3,30.02,South,169,6.0,6.0,81,0.00,,---,0.05,VWS V14.01,2013-04-29 18:40:00,
2013-04-29 14:45:00,60.3,53.8,30.02,South,181,4.0,4.0,79,0.00,,---,0.05,VWS V14.01,2013-04-29 18:45:00,
2013-04-29 14:50:00,59.1,53.3,30.02,SSW,212,3.0,9.0,81,0.00,,---,0.05,VWS V14.01,2013-04-29 18:50:00,
2013-04-29 14:55:00,58.5,52.7,30.02,SSE,154,8.0,8.0,81,0.00,,---,0.05,VWS V14.01,2013-04-29 18:55:00,
2013-04-29 15:00:00,58.7,53.2,30.02,SSE,159,4.0,7.0,82,0.00,,---,0.05,VWS V14.01,2013-04-29 19:00:00,
2013-04-29 15:05:00,58.2,52.7,30.02,South,180,7.0,7.0,82,0.00,,---,0.05,VWS V14.01,2013-04-29 19:05:00,
2013-04-29 15:10:00,57.7,52.2,30.02,SSE,149,7.0,7.0,82,0.00,,---,0.05,VWS V14.01,2013-04-29 19:10:00,
2013-04-29 15:15:00,57.7,52.2,30.01,SSE,166,4.0,4.0,82,0.00,,---,0.05,VWS V14.01,2013-04-29 19:15:00,
2013-04-29 15:20:00,58.0,52.2,30.01,South,181,5.0,5.0,81,0.00,,---,0.05,VWS V14.01,2013-04-29 19:20:00,
2013-04-29 15:25:00,58.4,52.9,30.01,SSE,160,4.0,4.0,82,0.00,,---,0.05,VWS V14.01,2013-04-29 19:25:00,
2013-04-29 15:30:00,57.9,52.5,30.01,SSE,164,4.0,8.0,82,0.00,,---,0.05,VWS V14.01,2013-04-29 19:30:00,
2013-04-29 15:35:00,57.4,52.3,30.01,SE,133,5.0,5.0,83,0.00,,---,0.05,VWS V14.01,2013-04-29 19:35:00,
2013-04-29 15:40:00,57.3,51.9,30.00,SE,130,7.0,7.0,82,0.00,,---,0.05,VWS V14.01,2013-04-29 19:40:00,
2013-04-29 15:45:00,57.2,52.1,30.00,SSE,168,5.0,6.0,83,0.00,,---,0.05,VWS V14.01,2013-04-29 19:45:00,
2013-04-29 15:50:00,57.2,52.4,30.00,NNE,30,5.0,6.0,84,0.00,,---,0.05,VWS V14.01,2013-04-29 19:50:00,
2013-04-29 15:55:00,58.1,53.0,30.00,SSE,155,3.0,4.0,83,0.00,,---,0.05,VWS V14.01,2013-04-29 19:55:00,
2013-04-29 16:00:00,59.2,52.7,29.99,SSW,199,7.0,7.0,79,0.00,,---,0.05,VWS V14.01,2013-04-29 20:00:00,
2013-04-29 16:05:00,58.9,52.8,29.99,South,170,3.0,5.0,80,0.00,,---,0.05,VWS V14.01,2013-04-29 20:05:00,
2013-04-29 16:10:00,59.6,53.4,29.99,South,174,8.0,8.0,80,0.00,,---,0.05,VWS V14.01,2013-04-29 20:10:00,
2013-04-29 16:15:00,59.7,53.5,29.98,East,85,4.0,12.0,80,0.00,,---,0.05,VWS V14.01,2013-04-29 20:15:00,
2013-04-29 16:20:00,59.7,53.9,29.98,ENE,77,5.0,5.0,81,0.00,,---,0.05,VWS V14.01,2013-04-29 20:20:00,
2013-04-29 16:25:00,60.0,54.2,29.98,South,169,6.0,6.0,81,0.00,,---,0.05,VWS V14.01,2013-04-29 20:25:00,
2013-04-29 16:30:00,60.2,54.0,29.98,South,176,6.0,9.0,80,0.00,,---,0.05,VWS V14.01,2013-04-29 20:30:00,
2013-04-29 16:35:00,59.5,53.0,29.98,SSE,157,5.0,5.0,79,0.00,,---,0.05,VWS V14.01,2013-04-29 20:35:00,
2013-04-29 16:40:00,60.1,53.9,29.98,SSE,165,6.0,6.0,80,0.00,,---,0.05,VWS V14.01,2013-04-29 20:40:00,
2013-04-29 16:45:00,60.6,53.7,29.98,SE,139,2.0,5.0,78,0.00,,---,0.05,VWS V14.01,2013-04-29 20:45:00,
2013-04-29 16:50:00,60.3,54.1,29.97,SSE,154,7.0,7.0,80,0.00,,---,0.05,VWS V14.01,2013-04-29 20:50:00,
2013-04-29 16:55:00,60.1,54.3,29.97,SSE,166,6.0,10.0,81,0.00,,---,0.05,VWS V14.01,2013-04-29 20:55:00,
2013-04-29 17:00:00,59.6,53.4,29.98,SSE,159,4.0,9.0,80,0.00,,---,0.05,VWS V14.01,2013-04-29 21:00:00,
2013-04-29 17:05:00,58.4,52.9,29.97,SSE,168,5.0,7.0,82,0.00,,---,0.05,VWS V14.01,2013-04-29 21:05:00,
2013-04-29 17:10:00,58.6,53.8,29.97,South,174,4.0,5.0,84,0.00,,---,0.05,VWS V14.01,2013-04-29 21:10:00,
2013-04-29 17:15:00,59.4,53.9,29.97,SSE,151,7.0,7.0,82,0.00,,---,0.05,VWS V14.01,2013-04-29 21:15:00,
2013-04-29 17:20:00,59.1,54.0,29.97,SSE,159,5.0,6.0,83,0.00,,---,0.05,VWS V14.01,2013-04-29 21:20:00,
2013-04-29 17:25:00,58.8,53.3,29.97,South,172,5.0,6.0,82,0.00,,---,0.05,VWS V14.01,2013-04-29 21:25:00,
2013-04-29 17:30:00,58.9,53.4,29.97,SSE,156,5.0,8.0,82,0.00,,---,0.05,VWS V14.01,2013-04-29 21:30:00,
2013-04-29 17:35:00,59.2,53.7,29.97,SSE,168,5.0,5.0,82,0.00,,---,0.05,VWS V14.01,2013-04-29 21:35:00,
2013-04-29 17:40:00,59.7,53.5,29.97,SSE,168,3.0,5.0,80,0.00,,---,0.05,VWS V14.01,2013-04-29 21:40:00,
2013-04-29 17:45:00,59.7,53.9,29.97,SE,145,5.0,7.0,81,0.00,,---,0.05,VWS V14.01,2013-04-29 21:45:00,
2013-04-29 17:50:00,59.5,53.3,29.97,SSE,161,3.0,5.0,80,0.00,,---,0.05,VWS V14.01,2013-04-29 21:50:00,
2013-04-29 17:55:00,59.0,53.5,29.97,SSE,162,3.0,4.0,82,0.00,,---,0.05,VWS V14.01,2013-04-29 21:55:00,
2013-04-29 18:00:00,58.9,53.4,29.97,SSE,160,5.0,8.0,82,0.00,,---,0.05,VWS V14.01,2013-04-29 22:00:00,
2013-04-29 18:05:00,58.8,53.7,29.97,South,182,3.0,4.0,83,0.00,,---,0.05,VWS V14.01,2013-04-29 22:05:00,
2013-04-29 18:10:00,58.4,52.6,29.97,South,170,3.0,4.0,81,0.00,,---,0.05,VWS V14.01,2013-04-29 22:10:00,
2013-04-29 18:15:00,57.6,52.8,29.97,South,171,5.0,5.0,84,0.00,,---,0.05,VWS V14.01,2013-04-29 22:15:00,
2013-04-29 18:20:00,57.4,52.6,29.97,SSE,152,4.0,4.0,84,0.00,,---,0.05,VWS V14.01,2013-04-29 22:20:00,
2013-04-29 18:25:00,57.3,52.5,29.97,SSE,151,4.0,4.0,84,0.00,,---,0.05,VWS V14.01,2013-04-29 22:25:00,
2013-04-29 18:30:00,57.3,52.5,29.97,SSE,166,4.0,4.0,84,0.00,,---,0.05,VWS V14.01,2013-04-29 22:30:00,
2013-04-29 18:35:00,57.5,52.4,29.97,SSE,163,1.0,3.0,83,0.00,,---,0.05,VWS V14.01,2013-04-29 22:35:00,
2013-04-29 18:40:00,57.3,52.2,29.97,SSE,165,2.0,3.0,83,0.00,,---,0.05,VWS V14.01,2013-04-29 22:40:00,
2013-04-29 18:45:00,57.3,52.2,29.97,SSE,168,4.0,4.0,83,0.00,,---,0.05,VWS V14.01,2013-04-29 22:45:00,
2013-04-29 18:50:00,57.5,52.4,29.97,SSE,168,2.0,2.0,83,0.00,,---,0.05,VWS V14.01,2013-04-29 22:50:00,
2013-04-29 18:55:00,57.1,52.6,29.97,South,169,1.0,3.0,85,0.00,,---,0.05,VWS V14.01,2013-04-29 22:55:00,
2013-04-29 19:00:00,56.9,52.4,29.97,South,181,0.0,2.0,85,0.00,,---,0.05,VWS V14.01,2013-04-29 23:00:00,
2013-04-29 19:05:00,56.6,52.5,29.96,SW,221,1.0,1.0,86,0.00,,---,0.05,VWS V14.01,2013-04-29 23:05:00,
2013-04-29 19:10:00,56.4,52.3,29.97,SW,221,1.0,2.0,86,0.00,,---,0.05,VWS V14.01,2013-04-29 23:10:00,
2013-04-29 19:15:00,56.1,52.3,29.97,South,183,1.0,2.0,87,0.00,,---,0.05,VWS V14.01,2013-04-29 23:15:00,
2013-04-29 19:20:00,55.9,52.4,29.97,South,180,2.0,2.0,88,0.00,,---,0.05,VWS V14.01,2013-04-29 23:20:00,
2013-04-29 19:25:00,55.7,52.5,29.97,South,180,3.0,5.0,89,0.00,,---,0.05,VWS V14.01,2013-04-29 23:25:00,
2013-04-29 19:30:00,55.5,52.3,29.97,South,176,3.0,3.0,89,0.00,,---,0.05,VWS V14.01,2013-04-29 23:30:00,
2013-04-29 19:35:00,55.3,52.4,29.97,South,180,4.0,4.0,90,0.00,,---,0.05,VWS V14.01,2013-04-29 23:35:00,
2013-04-29 19:40:00,55.2,52.6,29.97,SSE,149,9.0,9.0,91,0.00,,---,0.05,VWS V14.01,2013-04-29 23:40:00,
2013-04-29 19:45:00,55.2,52.6,29.97,ESE,108,8.0,8.0,91,0.00,,---,0.05,VWS V14.01,2013-04-29 23:45:00,
2013-04-29 19:50:00,55.0,52.4,29.97,SE,146,4.0,5.0,91,0.00,,---,0.05,VWS V14.01,2013-04-29 23:50:00,
2013-04-29 19:55:00,54.7,52.4,29.98,SE,144,5.0,5.0,92,0.00,,---,0.05,VWS V14.01,2013-04-29 23:55:00,
2013-04-29 20:00:00,54.6,52.6,29.98,SE,138,4.0,5.0,93,0.00,,---,0.05,VWS V14.01,2013-04-30 00:00:00,
2013-04-29 20:05:00,54.5,52.5,29.98,SE,126,5.0,5.0,93,0.00,,---,0.05,VWS V14.01,2013-04-30 00:05:00,
2013-04-29 20:10:00,54.5,52.5,29.98,SE,136,4.0,4.0,93,0.00,,---,0.05,VWS V14.01,2013-04-30 00:10:00,
2013-04-29 20:15:00,54.5,52.5,29.99,SE,133,5.0,7.0,93,0.00,,---,0.05,VWS V14.01,2013-04-30 00:15:00,
2013-04-29 20:20:00,54.3,52.6,29.99,ESE,121,6.0,8.0,94,0.00,,---,0.05,VWS V14.01,2013-04-30 00:20:00,
2013-04-29 20:25:00,54.3,52.6,29.99,ESE,113,6.0,6.0,94,0.00,,---,0.05,VWS V14.01,2013-04-30 00:25:00,
2013-04-29 20:30:00,54.2,52.8,29.99,ESE,116,6.0,6.0,95,0.00,,---,0.05,VWS V14.01,2013-04-30 00:30:00,
2013-04-29 20:35:00,54.1,52.7,29.99,East,101,5.0,7.0,95,0.00,,---,0.05,VWS V14.01,2013-04-30 00:35:00,
2013-04-29 20:40:00,54.0,52.6,29.99,SE,135,8.0,8.0,95,0.00,,---,0.05,VWS V14.01,2013-04-30 00:40:00,
2013-04-29 20:45:00,53.9,52.8,29.99,SE,133,4.0,8.0,96,0.00,,---,0.05,VWS V14.01,2013-04-30 00:45:00,
2013-04-29 20:50:00,53.8,52.7,30.00,ESE,111,7.0,7.0,96,0.00,,---,0.05,VWS V14.01,2013-04-30 00:50:00,
2013-04-29 20:55:00,53.7,52.6,30.00,ESE,121,5.0,6.0,96,0.00,,---,0.05,VWS V14.01,2013-04-30 00:55:00,
2013-04-29 21:00:00,53.7,52.6,30.00,SE,139,4.0,4.0,96,0.00,,---,0.05,VWS V14.01,2013-04-30 01:00:00,
2013-04-29 21:05:00,53.6,52.5,30.00,SE,146,4.0,5.0,96,0.00,,---,0.05,VWS V14.01,2013-04-30 01:05:00,
2013-04-29 21:10:00,53.4,52.3,30.00,SSE,167,5.0,7.0,96,0.00,,---,0.05,VWS V14.01,2013-04-30 01:10:00,
2013-04-29 21:15:00,53.3,52.2,30.00,SE,128,7.0,7.0,96,0.00,,---,0.05,VWS V14.01,2013-04-30 01:15:00,
2013-04-29 21:20:00,53.2,52.1,30.00,ESE,107,4.0,5.0,96,0.00,,---,0.05,VWS V14.01,2013-04-30 01:20:00,
2013-04-29 21:25:00,53.2,52.1,30.01,SSE,164,6.0,6.0,96,0.00,,---,0.05,VWS V14.01,2013-04-30 01:25:00,
2013-04-29 21:30:00,53.1,52.0,30.01,South,170,7.0,7.0,96,0.00,,---,0.05,VWS V14.01,2013-04-30 01:30:00,
2013-04-29 21:35:00,53.0,51.9,30.01,SSE,160,3.0,4.0,96,0.00,,---,0.05,VWS V14.01,2013-04-30 01:35:00,
2013-04-29 21:40:00,53.0,51.9,30.01,SE,145,3.0,5.0,96,0.00,,---,0.05,VWS V14.01,2013-04-30 01:40:00,
2013-04-29 21:45:00,52.9,51.8,30.01,SSE,164,4.0,5.0,96,0.00,,---,0.05,VWS V14.01,2013-04-30 01:45:00,
2013-04-29 21:50:00,52.8,51.7,30.02,SSE,149,4.0,5.0,96,0.00,,---,0.05,VWS V14.01,2013-04-30 01:50:00,
2013-04-29 21:55:00,52.8,52.0,30.02,ESE,114,3.0,3.0,97,0.00,,---,0.05,VWS V14.01,2013-04-30 01:55:00,
2013-04-29 22:00:00,52.7,51.9,30.02,ESE,118,2.0,5.0,97,0.00,,---,0.05,VWS V14.01,2013-04-30 02:00:00,
2013-04-29 22:05:00,52.4,51.3,30.02,SE,135,4.0,4.0,96,0.00,,---,0.05,VWS V14.01,2013-04-30 02:05:00,
2013-04-29 22:10:00,52.2,51.4,30.02,South,169,3.0,4.0,97,0.00,,---,0.05,VWS V14.01,2013-04-30 02:10:00,
2013-04-29 22:15:00,52.0,51.2,30.02,SE,137,4.0,4.0,97,0.00,,---,0.05,VWS V14.01,2013-04-30 02:15:00,
2013-04-29 22:20:00,51.9,51.1,30.03,SE,135,2.0,4.0,97,0.00,,---,0.05,VWS V14.01,2013-04-30 02:20:00,
2013-04-29 22:25:00,51.9,51.4,30.02,SE,141,5.0,5.0,98,0.00,,---,0.05,VWS V14.01,2013-04-30 02:25:00,
2013-04-29 22:30:00,51.8,51.3,30.02,SSE,160,3.0,3.0,98,0.00,,---,0.05,VWS V14.01,2013-04-30 02:30:00,
2013-04-29 22:35:00,51.6,51.1,30.03,SSE,162,3.0,3.0,98,0.00,,---,0.05,VWS V14.01,2013-04-30 02:35:00,
2013-04-29 22:40:00,51.5,51.0,30.02,SSE,162,2.0,2.0,98,0.00,,---,0.05,VWS V14.01,2013-04-30 02:40:00,
2013-04-29 22:45:00,51.3,50.8,30.03,SSE,165,3.0,4.0,98,0.00,,---,0.05,VWS V14.01,2013-04-30 02:45:00,
2013-04-29 22:50:00,51.2,50.7,30.03,SSE,165,1.0,2.0,98,0.00,,---,0.05,VWS V14.01,2013-04-30 02:50:00,
2013-04-29 22:55:00,51.1,50.6,30.03,SSE,165,4.0,4.0,98,0.00,,---,0.05,VWS V14.01,2013-04-30 02:55:00,
2013-04-29 23:00:00,51.0,50.5,30.02,SSE,165,2.0,2.0,98,0.00,,---,0.05,VWS V14.01,2013-04-30 03:00:00,
2013-04-29 23:05:00,51.1,50.6,30.02,SSE,165,2.0,2.0,98,0.00,,---,0.05,VWS V14.01,2013-04-30 03:05:00,
2013-04-29 23:10:00,50.9,50.4,30.02,SSE,165,2.0,2.0,98,0.00,,---,0.05,VWS V14.01,2013-04-30 03:10:00,
2013-04-29 23:15:00,50.9,50.6,30.02,SSE,165,1.0,2.0,99,0.00,,---,0.05,VWS V14.01,2013-04-30 03:15:00,
2013-04-29 23:20:00,50.8,50.5,30.02,SSE,162,2.0,2.0,99,0.00,,---,0.05,VWS V14.01,2013-04-30 03:20:00,
2013-04-29 23:25:00,50.6,50.1,30.02,SSE,162,1.0,2.0,98,0.00,,---,0.05,VWS V14.01,2013-04-30 03:25:00,
2013-04-29 23:30:00,50.7,50.4,30.02,SSE,162,3.0,3.0,99,0.00,,---,0.05,VWS V14.01,2013-04-30 03:30:00,
2013-04-29 23:35:00,50.8,50.5,30.02,SSE,162,2.0,2.0,99,0.00,,---,0.05,VWS V14.01,2013-04-30 03:35:00,
2013-04-29 23:40:00,50.9,50.6,30.02,SSE,162,1.0,1.0,99,0.00,,---,0.05,VWS V14.01,2013-04-30 03:40:00,
2013-04-29 23:45:00,50.9,50.6,30.02,SSE,162,2.0,3.0,99,0.00,,---,0.05,VWS V14.01,2013-04-30 03:45:00,
2013-04-29 23:50:00,50.9,50.6,30.01,SSE,162,2.0,2.0,99,0.00,,---,0.05,VWS V14.01,2013-04-30 03:50:00,
2013-04-29 23:55:00,50.9,50.4,30.02,SSE,162,2.0,2.0,98,0.00,,---,0.05,VWS V14.01,2013-04-30 03:55:00,